User: anonymous   Login
Location: Enborne
(51.3833°N, 1.3667°W)
Time: 10:59:55
(UTC+00:00)
Language:

NOSS 2-2 (C) - Orbit

View from above orbital plane
View from above orbital plane
View from above satellite
View from above satellite

Ground track
Ground track

The orbit data is extracted from the following two-line orbital elements,

1 21799U 91076C   20331.19151344 0.00000200  00000-0  35924-4 0    00
2 21799  63.3268  83.7830 0852455  40.6930 319.3070 13.41380232    08
Epoch (UTC): 26 November 2020 04:35:46
Eccentricity: 0.0852455
inclination: 63.3268°
perigee height: 466 km
apogee height: 1742 km
right ascension of ascending node: 83.7830°
argument of perigee: 40.6930°
revolutions per day: 13.41380232
mean anomaly at epoch: 319.3070°
orbit number at epoch: 0

The dashed part of the orbit path shows where the satellite is in the earth's shadow,  

DLR